Regional Weather Roundup
Issued by NWS

Home | Current Version | Previous Version | Text Only | Print | Product List | Glossary Off
Versions: 1 2 3 4 5 6 7 8 9 10 11 12 13 14 15 16 17 18 19 20 21 22 23 24 25 26 27 28 29 30 31 32 33 34 35 36 37 38 39 40 41 42 43 44 45 46 47 48 49 50

124
ASUS44 KJAN 231810
RWRMS

MISSISSIPPI HOURLY WEATHER ROUNDUP
NATIONAL WEATHER SERVICE JACKSON MS
100 PM CDT THU OCT 23 2014

NOTE: "FAIR: INDICATES FEW OR NO CLOUDS BELOW 12,000 FEET WITH NO
SIGNIFICANT WEATHER AND/OR OBSTRUCTIONS TO VISIBILITY.

MSZ001>002-007>008-010>013-018>021-025>028-034>036-231900-
NORTHWEST MISSISSIPPI

CITY           SKY/WX    TMP DP  RH WIND       PRES   REMARKS
CLARKSDALE     FAIR      61  45  55 N3        30.18F
CLEVELAND      FAIR      62  48  60 CALM      30.17F
GREENWOOD      NOT AVBL
GREENVILLE     CLOUDY    63  47  55 NW3       30.16F
6HR MIN TEMP:  46; 6HR MAX TEMP:  63;

GRENADA          N/A    N/A N/A N/A MISG        N/A
OLIVE BRANCH   PTSUNNY   61  43  51 CALM      30.18F
OXFORD         FAIR      63  41  45 CALM      30.17F
TUNICA         CLOUDY    61  43  51 CALM      30.18F
$$

MSZ003>006-009-014>017-022>024-029>033-037>039-231900-
NORTHEAST MISSISSIPPI

CITY           SKY/WX    TMP DP  RH WIND       PRES   REMARKS
COLUMBUS AFB   PTSUNNY   65  45  49 VRB1      30.14F
6HR MIN TEMP:  38; 6HR MAX TEMP:  65;

CORINTH        FAIR      63  45  51 CALM      30.15F
GOLDN TRIANGLE MOSUNNY   66  43  42 CALM      30.15F
STARKVILLE     FAIR      63  45  51 NE3       30.14F
TUPELO         MOSUNNY   64  44  48 VRB5      30.15F
6HR MIN TEMP:  40; 6HR MAX TEMP:  65;

$$

MSZ040-058-231900-
CENTRAL MISSISSIPPI

CITY           SKY/WX    TMP DP  RH WIND       PRES   REMARKS
JACKSON INTL   CLOUDY    66  44  45 CALM      30.13F
6HR MIN TEMP:  42; 6HR MAX TEMP:  67;

JACKSON HAWKNS CLOUDY    67  44  43 CALM      30.14F
6HR MIN TEMP:  44; 6HR MAX TEMP:  68;

MERIDIAN KEY   MOSUNNY   69  37  30 NE3       30.12F
6HR MIN TEMP:  40; 6HR MAX TEMP:  70;

MERIDIAN NAS   MOSUNNY   68  42  38 VRB5      30.12F
6HR MIN TEMP:  39; 6HR MAX TEMP:  69;

RAYMOND        FAIR      66  63  88 MISG      30.13F
VICKSBURG      PTSUNNY   67  45  45 SE6       30.15F
$$

MSZ059>079-231900-
SOUTH MISSISSIPPI

CITY           SKY/WX    TMP DP  RH WIND       PRES   REMARKS
BROOKHAVEN     FAIR      66  45  45 CALM      30.14S
COLUMBIA         N/A    N/A N/A N/A MISG        N/A
HATTIESBURG    SUNNY     70  42  36 E8        30.11F
6HR MIN TEMP:  41; 6HR MAX TEMP:  71;

MCCOMB         MOSUNNY   70  42  36 VRB6      30.11F
6HR MIN TEMP:  50; 6HR MAX TEMP:  71;

NATCHEZ        MOSUNNY   66  46  48 NE5       30.14S
6HR MIN TEMP:  43; 6HR MAX TEMP:  66;

PINE BELT      SUNNY     72  43  35 N5        30.12F
6HR MIN TEMP:  45; 6HR MAX TEMP:  72;

$$

MSZ080>082-231900-
COASTAL MISSISSIPPI

CITY           SKY/WX    TMP DP  RH WIND       PRES   REMARKS
BAY ST LOUIS   SUNNY     73  39  29 NE7       30.09F
BILOXI         SUNNY     73  45  36 NE8       30.08F
6HR MIN TEMP:  50; 6HR MAX TEMP:  73;

PASCAGOULA     SUNNY     73  45  36 E6        30.08F
6HR MIN TEMP:  45; 6HR MAX TEMP:  74;

GULFPORT       SUNNY     73  45  36 VRB7      30.08F
6HR MIN TEMP:  50; 6HR MAX TEMP:  73;

$$



USA.gov is the U.S. government's official web portal to all federal, state and local government web resources and services.